Regional Weather Roundup
Issued by NWS Sterling, VA

Home | Current Version | Previous Version | Text Only | Print | Product List | Glossary On
Versions: 1 2 3 4 5 6 7 8 9 10 11 12 13 14 15 16 17 18 19 20 21 22 23 24 25 26 27 28 29 30 31 32 33 34 35 36 37 38 39 40 41 42 43 44 45 46 47 48 49 50
000
ASUS41 KLWX 291010
RWRLWX

REGIONAL WEATHER ROUNDUP
NATIONAL WEATHER SERVICE BALTIMORE MD/WASHINGTON DC
600 AM EDT SAT AUG 29 2015

Note: "FAIR" indicates few or no clouds below 12,000 feet
with no significant weather and/or obstructions to visibility.
 TC=TEMPERATURE CELSIUS

 * =Non NWS site. Station does not report precipitation (e.g. rain,
    snow, etc.), thunder, or fog.

DCZ001-MDZ009-015-VAZ040>042-051-053>054-291100-
WASHINGTON METRO

CITY           SKY/WX    TMP DP  RH WIND       PRES   REMARKS
WASHINGTON NAT PTCLDY    67  61  81 S6        30.20S
DULLES         PTCLDY    65  59  81 S6        30.19S
ANDREWS AFB    PTCLDY    62  59  90 S3        30.19S
FT BELVOIR     CLEAR     60  59  95 CALM      30.20R
QUANTICO       PTCLDY    66  61  84 W3        30.21S
COLLEGE PARK*  CLEAR     63  63 100 CALM      30.19S
LEESBURG*      CLEAR     63  63 100 CALM      30.20S
MANASSAS*      CLEAR     63  63 100 CALM      30.19S
GAITHERSBURG*  CLEAR     61  55  82 SE5       30.23S

$$

MDZ006>007-011-014-291100-
BALTIMORE METRO

CITY           SKY/WX    TMP DP  RH WIND       PRES   REMARKS
BWI AIRPORT    PTCLDY    62  59  90 CALM      30.19S
MD SCIENCE CTR   N/A     69  58  67 MISG      30.19F
MARTIN STATE   CLEAR     64  63  94 CALM      30.20F
ANNAPOLIS      CLOUDY    68  60  75 CALM      30.19R
FORT MEADE*    PTCLDY    57  55  94 CALM      30.21F

$$

MDZ012-015-019>023-291100-
MARYLAND EASTERN SHORE

CITY           SKY/WX    TMP DP  RH WIND       PRES   REMARKS
OCEAN CITY     CLEAR     58  55  90 CALM      30.20S
SALISBURY      CLEAR     57  54  89 CALM      30.20R
BAY BRIDGE AP*   N/A     72  63  73 SW5       30.20R
CAMBRIDGE*     CLEAR     59  55  88 CALM      30.19S
EASTON*        MOCLDY    63  63 100 CALM      30.23

$$

MDZ017>025-291100-
SOUTHERN MARYLAND

CITY           SKY/WX    TMP DP  RH WIND       PRES   REMARKS
PATUXENT RIVER CLEAR     60  58  92 CALM      30.20R
ST INIGOES     CLEAR     61  59  93 CALM      30.19S
LEONARDTOWN*   MOCLDY    61  59  94 CALM      30.22R

$$

MDZ003>005-291100-
NORTH CENTRAL MARYLAND

CITY           SKY/WX    TMP DP  RH WIND       PRES   REMARKS
FREDERICK*     CLEAR     55  55 100 CALM      30.21F FOG
HAGERSTOWN APT CLEAR     63  57  81 W3        30.18S
WESTMINSTER*   CLEAR     63  57  82 CALM      30.20S

$$

MDZ501>502-291100-
WESTERN MARYLAND

CITY           SKY/WX    TMP DP  RH WIND       PRES   REMARKS
OAKLAND*       CLEAR     59  54  82 SW7       30.24F
CUMBERLAND*    CLEAR     59  59 100 CALM      30.22S

$$

VAZ025>031-291100-
SHENANDOAH VALLEY

CITY           SKY/WX    TMP DP  RH WIND       PRES   REMARKS
WINCHESTER*    CLEAR     59  59 100 CALM      30.19R
FRONT ROYAL*   FAIR      59  59 100 CALM      30.18S
LURAY*           N/A     59  59 100 CALM      30.20R FOG
NEW MARKET*    FAIR      57  57  98 CALM      30.20R
STAUNTON*      CLEAR     61  58  90 CALM      30.23S
WAYNESBORO*    FAIR      61  58  89 CALM      30.22S

$$

WVZ021-048>050-054>055-291100-
EASTERN WEST VIRGINIA PANHANDLE

CITY           SKY/WX    TMP DP  RH WIND       PRES   REMARKS
MARTINSBURG    CLEAR     58  57  97 CALM      30.18S FOG
PETERSBURG*    CLEAR     55  55  98 CALM      30.20S FOG

$$

VAZ036>039-050-291100-
CENTRAL FOOTHILLS

CITY           SKY/WX    TMP DP  RH WIND       PRES   REMARKS
CHARLOTTESVILL CLEAR     63  60  90 CALM      30.20S
CULPEPER*      MOCLDY    60  60  99 CALM      30.20S
ORANGE*        PTCLDY    61  61 100 CALM      30.21S
GORDONSVILLE*  FAIR      60  59  97 CALM      30.20S
WARRENTON*     FAIR      64  62  91 CALM      30.19S

$$

VAZ055>057-291100-
NORTH AND CENTRAL PIEDMONT

CITY           SKY/WX    TMP DP  RH WIND       PRES   REMARKS
FREDERICKSBRG* PTCLDY    63  63  99 CALM      30.19F
STAFFORD*      MOCLDY    58  57  96 CALM      30.24S FOG

$$

NCZ024-NYZ072-PAZ021-071-VAZ022-071-291100-
OTHER REGIONAL OBSERVATIONS

CITY           SKY/WX    TMP DP  RH WIND       PRES   REMARKS
NEW YORK CITY  CLEAR     68  53  58 CALM      30.21S
PHILADELPHIA   PTCLDY    66  57  72 CALM      30.20S
PITTSBURGH     PTCLDY    55  51  86 CALM      30.16R
ROANOKE        MOCLDY    63  59  87 CALM      30.24R
RICHMOND       PTCLDY    65  59  81 CALM      30.20S
RALEIGH        PTCLDY    60  58  92 CALM      30.21R

$$

ANZ530>537-291100-
MARINE OBSERVATIONS

STATION/POSITION TIME  TEMP    WIND        PRES
                       AIR SEA DIR/SP/G
                 (UTC) (F)     (DEG/KT/KT) (MB)
THOMAS PT LIGHT  NOT AVBL

$$




USA.gov is the U.S. government's official web portal to all federal, state and local government web resources and services.